Location: Paderno d�Adda
(45.6667°N, 9.4333°E)
Time: 06:13:22
(UTC+00:00)

Daily predictions for brighter satellites

Satellite Brightness Start Highest point End
(mag) Time Altitude Azimuth Time Altitude Azimuth Time Altitude Azimuth
Cosmos 2227 4.2 17:45:45 10° SSW 17:51:27 71° ESE 17:57:10 10° NNE
HJ-1C 4.2 17:48:42 10° SE 17:51:38 31° ENE 17:54:36 10° N
Cosmos 1975 Rocket 3.4 17:47:53 10° N 17:52:01 42° ENE 17:56:07 10° SSE
Cosmos 1898 Rocket 3.4 17:49:10 10° SSW 17:54:19 74° ESE 17:59:30 10° NNE
ATLAS CENTAUR R/B 3.9 17:53:06 10° WNW 17:55:21 15° NW 17:57:33 10° N
Cosmos 1943 3.2 17:49:55 10° NNW 17:55:35 72° ENE 18:01:13 10° SSE
COSMO-SKYMED 1 3.2 17:52:00 10° N 17:56:19 62° WNW 18:00:35 10° SSW
Cosmos 1867 3.9 17:57:02 10° NNW 18:02:22 51° NE 18:07:40 10° SE
Cosmos 858 Rocket 4.5 18:01:21 10° S 18:06:31 69° ESE 18:11:43 10° NNE
Lacrosse 5 rocket 3.2 18:03:34 10° W 18:07:18 29° NNW 18:11:12 10° NE
CSL-04 Debris 4.1 18:02:08 10° SSE 18:07:30 74° ENE 18:12:53 10° N
CZ-2D R/B 4.4 18:06:16 10° S 18:10:02 49° W 18:13:50 10° NNW
Sich 1 Rocket 3.9 18:06:31 10° SSE 18:10:47 46° E 18:15:08 10° NNE
Meteor 1-21 4.2 18:08:34 10° N 18:14:12 83° E 18:19:48 10° SSE
MOS 1 Rocket 3.4 18:10:38 10° NNE 18:14:56 45° E 18:19:03 10° S
Cosmos 807 4.3 18:12:07 10° S 18:15:12 77° E 18:18:53 10° N
CSL-04 Rocket 3.7 18:10:31 10° SSE 18:15:56 82° ENE 18:21:28 10° NNW
Cosmos 1603 4.0 18:10:26 10° NNW 18:16:05 70° WSW 18:21:39 10° SSE
SJ 16-02 3.3 18:14:50 10° SW 18:18:48 34° WNW 18:22:49 10° N
OBJECT-B 2.9 18:19:21 11° ENE 18:19:37 12° ENE 18:20:46 10° NE
Cosmos 1937 Rocket 3.5 18:17:10 10° SSW 18:22:27 87° WNW 18:27:41 10° NNE
Okean 2 Rocket 3.4 18:25:03 10° SSE 18:29:20 46° E 18:33:37 10° NNE
Abrixas rocket 2.5 18:27:05 10° W 18:29:52 48° N 18:31:44 18° ENE
Cosmos 1464 Rocket 4.0 18:24:58 10° SSE 18:30:55 56° E 18:36:56 10° NNE
NOSS 2-2 (E) 3.0 18:28:09 10° SW 18:31:38 87° SE 18:35:34 10° NE
SL-08 RB Rocket 3.9 18:27:22 10° SE 18:31:48 50° ENE 18:36:13 10° N
USA 116 4.3 18:32:00 10° N 18:35:22 56° WNW 18:39:07 10° SSW
ATLAS 2AS CENTAUR R/B 4.1 18:32:14 10° SE 18:37:19 19° ESE 18:42:26 10° ENE
Cosmos 1300 Rocket 3.6 18:33:39 10° S 18:37:55 54° E 18:42:16 10° NNE
CZ-2C R/B 3.0 18:36:57 10° SW 18:38:56 14° S 18:39:59 13° SSE
NOSS 2-2 (D) 2.9 18:36:50 10° SW 18:40:19 83° SE 18:44:11 10° NE
USA 102 3.0 18:38:58 14° SE 18:44:38 60° ENE 18:45:15 46° NNE
YAOGAN 1 4.4 18:40:55 10° SSW 18:44:49 33° W 18:48:45 10° NNW
CENTAUR R/B 3.6 18:38:39 10° NNW 18:46:15 48° NE 18:51:59 21° ESE
BREEZE-M R/B 4.3 18:32:50 10° WSW 18:46:32 73° SSE 18:48:53 22° ENE
H-2A R/B 2.4 18:43:57 10° S 18:48:51 62° W 18:53:53 10° NNW
CZ-4 R/B 4.0 18:46:52 10° SSW 18:50:18 24° W 18:53:43 10° NW
Cosmos 1674 3.4 18:48:05 10° N 18:51:36 32° ENE 18:52:10 31° E
ATLAS 3B R/B 4.1 18:47:22 10° NNW 18:52:47 24° NNE 18:56:56 15° ENE
Exosat Rocket 4.1 18:48:41 10° S 18:53:50 35° ESE 18:58:22 10° NE
ISS -3.9 18:51:28 10° WSW 18:54:50 81° SSE 18:56:09 34° ENE
Cosmos 1048 Rocket 4.1 18:49:44 10° NNW 18:54:59 57° ENE 18:58:02 25° SE
Cosmos 1536 Rocket 3.6 18:51:46 10° N 18:56:11 61° E 18:58:59 22° SSE
USA 238 DEB 3.9 18:50:39 10° NW 18:57:50 66° NE 19:02:31 25° SE
USA 238 3.9 18:50:45 10° NW 18:57:56 66° NE 19:02:35 25° ESE
Cosmos 1891 Rocket 4.5 18:52:15 10° S 18:58:24 86° W 19:04:30 10° N
In-Cosmos 22 4.0 18:53:28 10° N 18:58:47 85° E 19:04:09 10° S
ARGOS 3.5 18:57:03 10° S 19:02:21 64° WSW 19:07:43 10° NNW
Cosmos 1025 Rocket 3.1 19:01:46 10° N 19:06:10 80° W 19:10:02 13° S
CZ-2C R/B 2.6 19:00:40 10° NNE 19:06:13 70° ESE 19:11:47 10° S
Cosmos 1707 3.7 19:05:40 10° NNW 19:09:21 46° W 19:13:01 10° SSW
Cosmos 2151 Rocket 3.5 19:06:18 10° S 19:10:44 89° ESE 19:15:15 10° N
KORONAS-FOTON 3.9 19:09:22 10° N 19:13:15 56° E 19:13:36 54° ESE
USA 186 2.5 19:13:02 26° SSW 19:14:29 50° W 19:17:39 10° NNW
Ariane Rocket 3.1 19:12:56 14° S 19:17:17 74° WSW 19:22:23 10° NNW
SJ-6B 2.7 19:16:15 35° S 19:17:43 76° WSW 19:21:29 10° NNW
CREW DRAGON DEMO-1 DEB 4.2 19:15:18 10° NW 19:18:00 30° N 19:18:00 30° N
FREGAT/IRIS 3.5 19:20:38 41° NW 19:20:38 41° NW 19:22:36 10° NNW
Cosmos 1844 3.7 19:14:30 10° S 19:20:06 59° ESE 19:25:40 10° NNE
Cosmos 2263 Rocket 4.2 19:17:45 10° WSW 19:22:31 29° NW 19:27:21 10° N
Nadezhda 4 Rocket 4.0 19:17:36 10° N 19:23:45 81° W 19:29:17 13° S
Cosmos 494 Rocket 4.0 19:19:28 10° NNW 19:24:43 66° ENE 19:26:05 47° SE
NOSS 3-2 (A) 4.0 19:18:00 10° NW 19:25:35 87° SW 19:30:19 30° SSE
MOS 1 4.4 19:21:25 17° S 19:25:57 75° WSW 19:31:41 10° NNW
Cosmos 2034 Rocket 4.2 19:22:10 10° SSW 19:28:32 77° W 19:34:55 10° N
Cosmos 1844 Rocket 2.5 19:23:14 10° SSW 19:28:48 85° ESE 19:34:26 10° NNE
Cosmos 2298 Rocket 4.3 19:25:55 10° SSW 19:31:13 69° WNW 19:36:33 10° NNE
SPOT 3 Rocket 3.4 19:32:57 51° SE 19:34:13 74° ENE 19:39:22 10° N
Resurs 01 Rocket 1.7 19:42:54 62° NE 19:42:54 62° NE 19:46:57 10° N
USA 234 3.1 19:37:13 13° NE 19:43:07 68° SE 19:49:39 10° SW
SWAS 4.4 19:41:45 10° NNW 19:45:52 80° WNW 19:45:52 80° WNW
Lacrosse 5 rocket 3.7 19:44:31 10° NW 19:47:41 19° N 19:49:27 15° NNE
OBJECT-B 2.5 19:52:34 32° NW 19:52:34 32° NW 19:54:43 10° NNW
Cosmos 1833 Rocket 3.6 19:46:28 10° NNW 19:51:25 33° NE 19:51:25 33° NE
Cosmos 1626 3.8 19:54:10 10° N 19:56:03 28° N 19:56:03 28° N
ARIANE 5 R/B 3.7 20:01:02 36° NNE 20:01:02 36° NNE 20:03:48 10° N
NOSS 3-2 (C) 4.0 19:52:49 10° NW 20:00:24 83° SW 20:03:03 49° SSE
Cosmos 1634 Rocket 3.8 19:59:03 45° S 20:01:07 88° E 20:07:21 10° N
BREEZE-M TANK 3.1 19:58:42 10° W 20:04:38 62° WSW 20:04:38 62° WSW
Cosmos 2285 Rocket 4.2 20:02:26 10° SSW 20:08:42 70° WNW 20:15:05 10° NNE
Cosmos 1125 Rocket 4.2 20:03:38 10° SW 20:08:49 53° WNW 20:14:03 10° NNE
Okean 1 Rocket 3.9 20:08:19 45° WSW 20:08:57 49° WNW 20:13:20 10° N
ERS-1 Rocket 4.4 20:17:26 28° NNE 20:17:26 28° NNE 20:20:12 10° N
Meteor 2-5 Rocket 4.4 20:18:59 10° NNW 20:24:24 49° W 20:25:28 44° SW
ATLAS 2AS CENTAUR R/B 2.9 20:19:17 10° SSW 20:27:13 79° SE 20:35:08 10° NE
Cosmos 2098 Rocket 4.3 20:23:48 10° N 20:30:00 59° NE 20:30:00 59° NE
ISS -0.4 20:28:49 10° WNW 20:29:08 12° WNW 20:29:08 12° WNW
Cosmos 2082 Rocket 3.3 20:28:26 10° NNW 20:32:16 34° NNE 20:32:16 34° NNE
CENTAUR R/B 3.5 20:29:22 10° NW 20:37:23 59° WSW 20:39:10 51° SSW
Cosmos 2279 Rocket 4.2 20:44:34 69° NW 20:44:34 69° NW 20:50:25 10° N
COSMOS 2406 3.8 20:38:46 10° NNW 20:43:10 55° NW 20:43:10 55° NW
ATLAS 3B R/B 2.8 20:37:49 10° NW 20:44:10 68° NNE 20:44:10 68° NNE
Terra 4.0 21:02:36 21° N 21:02:36 21° N 21:04:12 10° N
Cosmos 2278 Rocket 4.4 21:07:57 17° NNE 21:07:57 17° NNE 21:09:08 10° NNE
Lacrosse 4 Rocket 4.4 21:06:07 10° NNW 21:06:37 13° NNW 21:06:37 13° NNW
Resurs 01 Rocket 4.5 21:20:28 13° WNW 21:20:28 13° WNW 21:21:44 10° WNW
USA 234 3.9 21:24:44 44° N 21:26:00 50° NNW 21:32:15 10° W
Lacrosse 5 rocket 4.4 21:24:09 10° NW 21:25:05 15° NNW 21:25:05 15° NNW
Cosmos 1833 Rocket 4.5 21:30:19 10° NW 21:33:07 27° NW 21:33:07 27° NW
ATLAS 2AS CENTAUR R/B 4.2 22:11:44 10° W 22:18:59 37° NW 22:26:06 10° NNE
